MAUNA LOA HI US current weather conditions

sailwx.info

Wind from 332 at 6 knots gusting 16

Air temperature 13.9° C
Dewpoint -2.1° C

Last reported at 2016-May-02 09:34 UTC.
Time now 2016-May-02 10:41 UTC

Location: N 19°28' W 155°22'.
View on Google Maps.

See reports from other nearby stations

  
Tides and Currents Weather Stations Pressure Air Temp Water Temp Dewpoint Dewpoint Depression Visibility Wind Speed Wind Dir Waves Ship Positions
date/time (UTC)wind fromknots sea level pressurealtimeterstation pressurevisibilityair tempwater tempwave heightnotes
2016-May-02 09:34 332 6 gusting 16 13.9
2016-May-02 08:34 329 7 gusting 15 13.9
2016-May-02 07:34 339 6 gusting 14 13.9
2016-May-02 06:34 282 5 gusting 11 12.2
2016-May-02 05:34 344 3 gusting 13 12.8
2016-May-02 04:34 007 7 gusting 16 13.9
2016-May-02 03:34 011 9 gusting 19 16.7
2016-May-02 02:34 010 10 gusting 21 18.3
2016-May-02 01:34 023 11 gusting 20 20.0
2016-May-02 00:34 023 11 gusting 23 21.1
2016-May-01 23:34 024 12 gusting 21 21.7
2016-May-01 22:34 023 11 gusting 19 21.7
2016-May-01 21:34 017 9 gusting 20 22.8
2016-May-01 20:34 005 8 gusting 18 21.7
2016-May-01 19:34 021 9 gusting 20 19.4
2016-May-01 18:34 009 9 gusting 17 17.2
2016-May-01 17:34 012 9 gusting 17 15.0
2016-May-01 16:34 346 5 gusting 10 11.7
2016-May-01 15:34 018 5 gusting 13 12.2
2016-May-01 14:34 356 6 gusting 14 12.2
2016-May-01 13:34 338 5 gusting 13 12.2
2016-May-01 12:34 333 5 gusting 14 12.2
2016-May-01 11:34 003 6 gusting 15 12.2
2016-May-01 10:34 337 5 gusting 16 11.7
2016-May-01 09:34 001 7 gusting 13 11.7
2016-May-01 08:34 002 2 gusting 7 7.2
2016-May-01 07:34 302 3 gusting 6 7.2
2016-May-01 06:34 286 3 gusting 14 10.6
2016-May-01 05:34 349 7 gusting 13 12.8
2016-May-01 04:34 014 7 gusting 17 13.3
2016-May-01 03:34 032 7 gusting 13 16.7
2016-May-01 02:34 033 7 gusting 16 18.9
2016-May-01 01:34 047 4 gusting 18 17.8
2016-May-01 00:34 058 4 gusting 13 19.4
2016-Apr-30 23:34 046 4 gusting 13 19.4
2016-Apr-30 22:34 053 5 gusting 12 19.4
2016-Apr-30 21:34 080 4 gusting 9 20.0
2016-Apr-30 20:34 045 5 gusting 13 18.3
2016-Apr-30 19:34 031 6 gusting 13 15.0
2016-Apr-30 18:34 032 6 gusting 11 13.3
2016-Apr-30 17:34 023 5 gusting 9 12.8
2016-Apr-30 16:34 357 3 gusting 7 12.2
2016-Apr-30 15:34 002 5 gusting 9 11.7
2016-Apr-30 14:34 008 5 gusting 12 11.7
2016-Apr-30 13:34 020 5 gusting 11 11.7
2016-Apr-30 12:34 354 6 gusting 13 11.7
2016-Apr-30 11:34 004 6 gusting 13 11.7
2016-Apr-30 10:34 001 6 gusting 12 11.7